CZ-6A DEB, 55888

Orbit data source: Space-Track

CZ-6A DEB, 55888 is space debris in SSO originally from a launch on Fri, 11 Nov 2022 UTC launched from the Taiyaun Space Center, China (TSC). Debris objects in space refer to the collection of defunct objects orbiting the Earth. Examples of debris include non-operational satellites, rocket bodies, and fragments generated from explosions, collisions, or faulty payload assembly.

Loading next visibility...
Identifier
55888, 2022-151AAL
Orbit
SSO
Country
Flag of CNCN / PRC
Related business
Manufacturer
SAST
Mission
Spacecraft
Bus & Motor
Unknown
Mass
Unknown
Launch date (UTC)
2022-11-11 (4 years ago)
Launch vehicle
Unknown
Launch site
Taiyaun Space Center, China (TSC)
Object type
Payload
Rocket body
Debris
Shape & HBR
Unknown shape, 0.1 m
Radar Cross Section
Medium (>0.1 m² and <1 m²)

Expand to show TLE details & history
Last TLE update: 2 days ago

TLE from 2 days ago
0 CZ-6A DEB
1 55888U 22151AAL 26171.34412328  .00002921  00000-0  55620-3 0  9994
2 55888  98.4488 199.8318 0127142 286.7389  71.9890 14.59829309184946
Epoch: 2026-06-20T08:15Z
TLE epoch observation values (Epoch: 2026-06-20T08:15:32.251Z)
Latitude
-0.00008°
Longitude
167.38734°
Altitude
669.936 km
Speed
7.536 km/s
True Right ascension
13h 19m 19s
True Declination
0° 00' 00"
Sunlit
Object was in daylight at epoch
Visualization orbit readout
Latitude
Unknown
Longitude
Unknown
Altitude
Unknown
Speed
Unknown
Apparent Right ascension
Unknown
Apparent Declination
Unknown
Sunlit
N/A
Visualization observer readout
Local Sidereal Time
21:50:08
Azimuth
Unknown
Elevation
Unknown
Doppler factor
Unknown
Orbital elements
Apogee altitude
780.694 km
Perigee altitude
600.941 km
Semi-major axis
7,068.955 km
Eccentricity
0.01271
Inclination
98.4488°
RAAN
199.8318°
Arg. of periapsis
286.7389°
True anomaly
73.38125°
Mean anomaly
71.989°
Eccentric anomaly
72.68446°
Mean motion
3.65183 °/min
Orbital period
98.58 mins
BSTAR
0.0005562
Loading maneuver chart data...
Computing Atmospheric mass density...
Loading historical data...
Loading historical data...
Loading historical data...
Loading historical data...
Loading historical data...
Loading historical data...
Loading historical data...

Documentation

Showing up to 5 results
|